User: anonymous   Login
Location: Prairie State College
(41.5244°N, 87.6382°W)
Time: 17:34:07
(UTC-05:00)
Language:

Cosmos 1140 Rocket - Orbit

View from above orbital plane
View from above orbital plane
View from above satellite
View from above satellite

Ground track
Ground track

The orbit data is extracted from the following two-line orbital elements,

1 11574U 79089B   15090.50516106  .00000318  00000-0  10829-3 0  9995
2 11574 074.0681 271.5450 0015564 019.2508 340.9232 14.40428810860690
Epoch (UTC): 31 March 2015 12:07:25
Eccentricity: 0.0015564
inclination: 74.0681°
perigee height: 746 km
apogee height: 768 km
right ascension of ascending node: 271.5450°
argument of perigee: 19.2508°
revolutions per day: 14.40428810
mean anomaly at epoch: 340.9232°
orbit number at epoch: 86069

The dashed part of the orbit path shows where the satellite is in the earth's shadow,  

DLR